College Station, TX

3:46 PM CDT on May 24, 2017 (GMT -0500)
Easterwood

Weather History for KCLL - October, 2012

Change the Weather History Date:

Wednesday, October 24, 2012

  Actual Average Record
Temperature  
Mean Temperature 77 °F 69 °F  
Max Temperature 87 °F 79 °F 93 °F (2001)
Min Temperature 67 °F 58 °F 36 °F (1917)
Degree Days  
Heating Degree Days 0 2  
Month to date heating degree days 12 16  
Since 1 July heating degree days 12 18  
Cooling Degree Days 12 5  
Month to date cooling degree days 212 183  
Year to date cooling degree days 3471 2979  
Growing Degree Days 26 (Base 50)    
Moisture  
Dew Point 67 °F    
Average Humidity 73    
Maximum Humidity 100    
Minimum Humidity 46    
Precipitation  
Precipitation 0.00 in 0.16 in 4.94 in (2015)
Month to date precipitation 1.81 3.87  
Year to date precipitation 36.56 32.57  
Sea Level Pressure  
Sea Level Pressure 29.95 in    
Wind  
Wind Speed 7 mph (SSE)    
Max Wind Speed 15 mph    
Max Gust Speed 26 mph    
Visibility 7 miles    
Events Fog    
T = Trace of Precipitation, MM = Missing Value Source: NWS Daily Summary

Daily Weather History Graph

Daily Weather History Graph

Search for Another Location

Airport or City:

Trip Planner

Search our weather history database for the weather conditions in past years. The results will help you decide how hot, cold, wet, or windy it might be!

Date:

Astronomy

Oct. 24, 2012 Rise Set
Actual Time 7:34 AM CDT 6:44 PM CDT
Civil Twilight 7:09 AM CDT 7:08 PM CDT
Nautical Twilight 6:41 AM CDT 7:36 PM CDT
Astronomical Twilight 6:13 AM CDT 8:04 PM CDT
Moon 3:43 PM CDT 2:50 AM CDT
Length of Visible Light 11h 58m
Length of Day
11h 09m
Waxing Gibbous, 76% of the Moon is Illuminated
Oct 24
Waxing Gibbous
Oct 29
Full
Nov 6
Last Quarter
Nov 13
New
Nov 20
First Quarter

Hourly Weather History & Observations

Time (CDT) Temp. Heat Index Dew Point Humidity Pressure Visibility Wind Dir Wind Speed Gust Speed Precip Events Conditions
12:53 AM 72.0 °F - 66.9 °F 84% 29.95 in 10.0 mi South 9.2 mph - N/A   Clear
1:53 AM 71.1 °F - 66.9 °F 87% 29.96 in 10.0 mi SSE 8.1 mph - N/A   Clear
2:53 AM 68.0 °F - 66.0 °F 93% 29.95 in 10.0 mi South 4.6 mph - N/A   Clear
3:53 AM 68.0 °F - 66.0 °F 93% 29.94 in 10.0 mi SSE 3.5 mph - N/A   Clear
4:53 AM 68.0 °F - 66.0 °F 93% 29.95 in 9.0 mi Calm Calm - N/A   Clear
5:53 AM 66.9 °F - 66.0 °F 97% 29.96 in 5.0 mi SE 3.5 mph - N/A   Clear
6:48 AM 66.2 °F - 66.2 °F 100% 29.98 in 5.0 mi SE 4.6 mph - N/A   Scattered Clouds
6:53 AM 66.9 °F - 66.0 °F 97% 29.97 in 5.0 mi SE 3.5 mph - N/A   Scattered Clouds
7:01 AM 66.2 °F - 66.2 °F 100% 29.98 in 4.0 mi Calm Calm - N/A   Mostly Cloudy
7:14 AM 66.2 °F - 66.2 °F 100% 29.99 in 4.0 mi Calm Calm - N/A   Overcast
7:39 AM 66.2 °F - 66.2 °F 100% 29.99 in 1.8 mi SE 3.5 mph - N/A   Overcast
7:48 AM 66.2 °F - 66.2 °F 100% 29.99 in 0.5 mi SE 3.5 mph - N/A Fog Fog
7:53 AM 66.9 °F - 66.9 °F 100% 29.99 in 0.5 mi SE 3.5 mph - N/A Fog Fog
8:13 AM 68.0 °F - 66.2 °F 94% 30.00 in 1.2 mi SSE 3.5 mph - N/A   Overcast
8:34 AM 68.0 °F - 68.0 °F 100% 30.00 in 3.0 mi SE 3.5 mph - N/A   Overcast
8:53 AM 69.1 °F - 68.0 °F 96% 30.00 in 3.0 mi SE 4.6 mph - N/A   Overcast
8:58 AM 69.8 °F - 69.8 °F 100% 30.01 in 1.8 mi ESE 4.6 mph - N/A   Overcast
9:17 AM 71.6 °F - 69.8 °F 94% 30.02 in 3.0 mi SE 5.8 mph - N/A   Overcast
9:53 AM 72.0 °F - 71.1 °F 97% 30.01 in 6.0 mi SSE 8.1 mph - N/A   Mostly Cloudy
10:07 AM 73.4 °F - 69.8 °F 88% 30.02 in 10.0 mi SSE 6.9 mph - N/A   Mostly Cloudy
10:14 AM 73.4 °F - 71.6 °F 94% 30.02 in 10.0 mi SSE 6.9 mph - N/A   Scattered Clouds
10:53 AM 78.1 °F - 70.0 °F 76% 30.00 in 10.0 mi South 10.4 mph - N/A   Partly Cloudy
11:53 AM 79.0 °F - 70.0 °F 74% 29.99 in 10.0 mi South 6.9 mph - N/A   Scattered Clouds
12:53 PM 82.9 °F 85.4 °F 66.9 °F 58% 29.97 in 10.0 mi SSE 11.5 mph - N/A   Scattered Clouds
1:53 PM 82.9 °F 85.0 °F 66.0 °F 56% 29.93 in 10.0 mi South 9.2 mph - N/A   Mostly Cloudy
2:53 PM 84.9 °F 86.1 °F 64.0 °F 49% 29.90 in 10.0 mi SE 10.4 mph - N/A   Scattered Clouds
3:53 PM 87.8 °F 89.4 °F 64.4 °F 46% 29.89 in 10.0 mi SSE 8.1 mph - N/A   Clear
4:53 PM 84.9 °F 85.9 °F 63.0 °F 48% 29.87 in 10.0 mi SSE 9.2 mph - N/A   Clear
5:53 PM 84.9 °F 85.9 °F 63.0 °F 48% 29.86 in 10.0 mi SE 8.1 mph - N/A   Clear
6:53 PM 80.1 °F 81.7 °F 64.0 °F 58% 29.87 in 10.0 mi SE 6.9 mph - N/A   Clear
7:53 PM 78.1 °F - 64.9 °F 64% 29.88 in 10.0 mi SSE 6.9 mph - N/A   Partly Cloudy
8:53 PM 78.1 °F - 66.0 °F 66% 29.89 in 10.0 mi SSE 11.5 mph - N/A   Clear
9:53 PM 77.0 °F - 66.9 °F 71% 29.90 in 10.0 mi SSE 13.8 mph - N/A   Clear
10:53 PM 75.0 °F - 66.9 °F 76% 29.90 in 10.0 mi SSE 10.4 mph - N/A   Clear
11:53 PM 73.9 °F - 68.0 °F 82% 29.89 in 10.0 mi SSE 8.1 mph - N/A   Scattered Clouds